DELTA 1 R/B(1)

Satellite information

Favourite Embed

Satellite Type and Status

ROCKET BODYIN ORBIT

Key statistics

Satellite DELTA 1 R/B(1) at a glance.

Uptime

17684

Days in orbit

Revolutions

≈ 13.3

Per day

Orbit

LEO

Low Earth Orbit

Inclination

29.1

Latest

Satellite identification and parameters

Extended collection of information and parameters for DELTA 1 R/B(1).

Object identification

Identified? True

Debris? False

Object name: DELTA 1 R/B(1)

International designator: 1977-065B

Object number (NORAD): 10144

Object ID (CCSDS): 10144

Country: UNITED STATES OF AMERICA (US)

Current information (Y/N): Y

RCS size: LARGE

Orbital parameters

Period: 108.619 minutes

Inclination: 29.0627 deg

SMA: 7541.02 km

Apoapsis: 1797.349 km

Periapsis: 528.42 km

RAAN: 203.1921 deg

Eccentricy: 0.0841351

Argument of periapsis: 226.0249 deg

Mean anomaly: 126.7861 deg

Mean motion: 13.25737761 rev/day

Mean motion (dot): 0.0000095 rev/day2

B* drag term: 0.00025123 1/REarth

Two-line elements (TLE)

Creation date: Dec. 12, 2025, 7:16 a.m.

Reference frame: TEME

Reference center: EARTH

Epoch: Dec. 11, 2025, 10:42 p.m. UTC

TLE line 0: 0 DELTA 1 R/B(1)

TLE line 1: 1 10144U 77065B 25345.94649786 .00000950 00000-0 25123-3 0 9997

TLE line 2: 2 10144 29.0627 203.1921 0841351 226.0249 126.7861 13.25737761338033

Live tracking on map

Real-time ground track for satellite DELTA 1 R/B(1).

In-orbit conjunctions

A list of the most updated potential collisions computed for object DELTA 1 R/B(1).

Target Orbit TCA Probability of collision Miss distance Type
SL-16 DEB LEO 2025-01-13 00:32:08 0.0001253408 296.0 (m) DEBRIS
COSMOS 1823 DEB LEO 2024-12-21 10:01:48 0.0005836549 839.0 (m) DEBRIS

Associated space launch

Japanese meteorological satellite built by Hughes Space and Communications Company

DELTA 1 R/B(1) was lifted into orbit during the mission ‘Delta 2914 | Himawari’, on board a Delta 2914 space rocket.

The launch took place on July 14, 1977, 10:39 a.m. from Space Launch Complex 17B.

For more information about the launch, click the button.

Launch to space Delta 2914 | Himawari
Delta 2914 | Himawari

Agency: N/A

Status: Launch Successful

Launch date: July 14, 1977, 10:39 a.m. UTC

Rocket: Delta 2914

Launch pad: Space Launch Complex 17B

Location: Cape Canaveral SFS, FL, USA

...

Latest news about this satellite

There are no fresh news available about this satellite. Check back as we update our databases every day.


Newsletter sign-up

Weekly statistics, charts and insights to help you stay on top of the space industry.